• In Deutschland
  • Länderverzeichnis
  • Für 7 Tage
  • Wassertemperatur
  • Satellitenkarten
  • Wetterkarte
  • Widgets
  • user-avatar
    Anmelden

    Stündliche Wetter Geislingen an der Steige

    Heute, 23 Oktober, Montag

    Zeit Temperatur Niederschläge Wind Luftdruck Luftfeuchtigkeit
    00:00 +6°C° 0,1 mm 4 m/S 724 mmHg 88%
    01:00 +6°C° 0 mm 4 m/S 723 mmHg 90%
    02:00 +5°C° 0,1 mm 4 m/S 723 mmHg 91%
    03:00 +5°C° 0,1 mm 4 m/S 724 mmHg 91%
    04:00 +5°C° 0,1 mm 4 m/S 724 mmHg 91%
    05:00 +5°C° 0,1 mm 4 m/S 724 mmHg 91%
    06:00 +5°C° 0,1 mm 4 m/S 724 mmHg 92%
    07:00 +5°C° 0 mm 3 m/S 724 mmHg 92%
    08:00 +5°C° 0 mm 4 m/S 725 mmHg 90%
    09:00 +6°C° 0 mm 4 m/S 725 mmHg 87%
    10:00 +7°C° 0 mm 5 m/S 725 mmHg 85%
    11:00 +7°C° 0,1 mm 5 m/S 725 mmHg 82%
    12:00 +8°C° 0,1 mm 5 m/S 726 mmHg 80%
    13:00 +8°C° 0 mm 4 m/S 726 mmHg 77%
    14:00 +8°C° 0,1 mm 4 m/S 726 mmHg 78%
    15:00 +8°C° 0,1 mm 4 m/S 726 mmHg 79%
    16:00 +8°C° 0,1 mm 4 m/S 726 mmHg 80%
    17:00 +7°C° 0,1 mm 4 m/S 726 mmHg 83%
    18:00 +8°C° 0,1 mm 3 m/S 727 mmHg 86%
    19:00 +8°C° 0,1 mm 3 m/S 727 mmHg 89%
    20:00 +8°C° 0,1 mm 3 m/S 727 mmHg 90%
    21:00 +8°C° 0,1 mm 3 m/S 728 mmHg 91%
    22:00 +8°C° 0,1 mm 3 m/S 728 mmHg 92%
    23:00 +8°C° 0 mm 3 m/S 728 mmHg 93%

    Morgen, 24 Oktober, Dienstag

    Zeit Temperatur Niederschläge Wind Luftdruck Luftfeuchtigkeit
    00:00 +7°C° 0 mm 3 m/S 728 mmHg 93%
    01:00 +7°C° 0 mm 3 m/S 729 mmHg 94%
    02:00 +7°C° 0 mm 2 m/S 729 mmHg 94%
    03:00 +7°C° 0 mm 2 m/S 729 mmHg 94%
    04:00 +7°C° 0 mm 2 m/S 729 mmHg 93%
    05:00 +7°C° 0 mm 2 m/S 729 mmHg 93%
    06:00 +7°C° 0 mm 2 m/S 729 mmHg 93%
    07:00 +7°C° 0 mm 2 m/S 729 mmHg 92%
    08:00 +7°C° 0 mm 2 m/S 729 mmHg 89%
    09:00 +8°C° 0 mm 2 m/S 729 mmHg 86%
    10:00 +9°C° 0 mm 2 m/S 729 mmHg 83%
    11:00 +10°C° 0 mm 2 m/S 729 mmHg 80%
    12:00 +12°C° 0 mm 2 m/S 729 mmHg 77%
    13:00 +13°C° 0 mm 2 m/S 729 mmHg 73%
    14:00 +14°C° 0 mm 2 m/S 729 mmHg 75%
    15:00 +14°C° 0 mm 2 m/S 729 mmHg 76%
    16:00 +14°C° 0 mm 1 m/S 729 mmHg 77%
    17:00 +13°C° 0 mm 1 m/S 729 mmHg 81%
    18:00 +12°C° 0 mm 1 m/S 729 mmHg 85%
    19:00 +9°C° 0 mm 2 m/S 729 mmHg 88%
    20:00 +9°C° 0 mm 2 m/S 729 mmHg 87%
    21:00 +9°C° 0 mm 2 m/S 729 mmHg 86%
    22:00 +9°C° 0 mm 2 m/S 729 mmHg 85%
    23:00 +10°C° 0 mm 2 m/S 729 mmHg 84%

    übermorgen, 25 Oktober, Mittwoch

    Zeit Temperatur Niederschläge Wind Luftdruck Luftfeuchtigkeit
    00:00 +10°C° 0 mm 2 m/S 729 mmHg 83%
    01:00 +10°C° 0 mm 2 m/S 729 mmHg 82%
    02:00 +9°C° 0 mm 2 m/S 728 mmHg 84%
    03:00 +9°C° 0 mm 2 m/S 728 mmHg 85%
    04:00 +8°C° 0 mm 2 m/S 728 mmHg 86%
    05:00 +8°C° 0 mm 2 m/S 728 mmHg 86%
    06:00 +9°C° 0 mm 1 m/S 728 mmHg 87%
    07:00 +9°C° 0 mm 1 m/S 728 mmHg 87%
    08:00 +11°C° 0 mm 1 m/S 728 mmHg 83%
    09:00 +13°C° 0 mm 1 m/S 729 mmHg 78%
    10:00 +14°C° 0 mm 1 m/S 729 mmHg 73%
    11:00 +16°C° 0 mm 2 m/S 729 mmHg 71%
    12:00 +17°C° 0 mm 2 m/S 729 mmHg 69%
    13:00 +18°C° 0 mm 2 m/S 729 mmHg 67%
    14:00 +18°C° 0 mm 2 m/S 729 mmHg 70%
    15:00 +19°C° 0 mm 1 m/S 729 mmHg 74%
    16:00 +18°C° 0 mm 1 m/S 728 mmHg 77%
    17:00 +16°C° 0 mm 1 m/S 729 mmHg 81%
    18:00 +14°C° 0 mm 1 m/S 729 mmHg 86%
    19:00 +13°C° 0 mm 1 m/S 729 mmHg 90%
    20:00 +12°C° 0 mm 1 m/S 729 mmHg 90%
    21:00 +12°C° 0 mm 1 m/S 729 mmHg 91%
    22:00 +11°C° 0 mm 0 m/S 730 mmHg 91%
    23:00 +12°C° 0 mm 1 m/S 730 mmHg 91%

    26 Oktober, Donnerstag

    Zeit Temperatur Niederschläge Wind Luftdruck Luftfeuchtigkeit
    00:00 +11°C° 0 mm 1 m/S 730 mmHg 91%
    01:00 +11°C° 0 mm 1 m/S 729 mmHg 91%
    02:00 +11°C° 0 mm 1 m/S 729 mmHg 91%
    03:00 +11°C° 0 mm 1 m/S 729 mmHg 91%
    04:00 +11°C° 0 mm 1 m/S 729 mmHg 91%
    05:00 +10°C° 0 mm 2 m/S 729 mmHg 90%
    06:00 +9°C° 0 mm 2 m/S 729 mmHg 90%
    07:00 +9°C° 0 mm 2 m/S 729 mmHg 89%
    08:00 +12°C° 0 mm 2 m/S 729 mmHg 83%
    09:00 +14°C° 0 mm 2 m/S 729 mmHg 77%
    10:00 +16°C° 0 mm 2 m/S 729 mmHg 71%
    11:00 +17°C° 0 mm 2 m/S 729 mmHg 67%
    12:00 +18°C° 0 mm 2 m/S 729 mmHg 63%
    13:00 +19°C° 0 mm 2 m/S 729 mmHg 60%
    14:00 +19°C° 0 mm 2 m/S 729 mmHg 64%
    15:00 +18°C° 0 mm 2 m/S 729 mmHg 68%
    16:00 +19°C° 0 mm 1 m/S 728 mmHg 72%
    17:00 +16°C° 0 mm 1 m/S 728 mmHg 75%
    18:00 +15°C° 0 mm 1 m/S 728 mmHg 79%
    19:00 +13°C° 0 mm 2 m/S 728 mmHg 83%
    20:00 +13°C° 0 mm 2 m/S 728 mmHg 83%
    21:00 +13°C° 0 mm 2 m/S 728 mmHg 83%
    22:00 +12°C° 0 mm 2 m/S 728 mmHg 83%
    23:00 +12°C° 0 mm 2 m/S 728 mmHg 83%

    27 Oktober, Freitag

    Zeit Temperatur Niederschläge Wind Luftdruck Luftfeuchtigkeit
    00:00 +12°C° 0 mm 2 m/S 728 mmHg 84%
    01:00 +12°C° 0 mm 2 m/S 728 mmHg 84%
    02:00 +12°C° 0 mm 2 m/S 727 mmHg 84%
    03:00 +12°C° 0 mm 2 m/S 727 mmHg 84%
    04:00 +12°C° 0 mm 2 m/S 727 mmHg 84%
    05:00 +11°C° 0 mm 3 m/S 727 mmHg 85%
    06:00 +11°C° 0 mm 3 m/S 727 mmHg 85%
    07:00 +11°C° 0 mm 3 m/S 727 mmHg 85%
    08:00 +12°C° 0 mm 4 m/S 726 mmHg 84%
    09:00 +13°C° 0 mm 4 m/S 726 mmHg 82%
    10:00 +14°C° 0 mm 5 m/S 726 mmHg 81%
    11:00 +14°C° 0 mm 6 m/S 726 mmHg 76%
    12:00 +15°C° 0 mm 6 m/S 725 mmHg 72%
    13:00 +16°C° 0 mm 7 m/S 725 mmHg 68%
    14:00 +15°C° 0,5 mm 7 m/S 725 mmHg 74%
    15:00 +12°C° 0,5 mm 7 m/S 725 mmHg 79%
    16:00 +11°C° 0,5 mm 6 m/S 725 mmHg 85%
    17:00 +10°C° 0,8 mm 6 m/S 726 mmHg 86%
    18:00 +9°C° 0,8 mm 5 m/S 726 mmHg 87%
    19:00 +8°C° 0,8 mm 4 m/S 727 mmHg 89%
    20:00 +8°C° 0 mm 3 m/S 727 mmHg 90%
    21:00 +7°C° 0 mm 3 m/S 727 mmHg 91%
    22:00 +6°C° 0 mm 2 m/S 728 mmHg 92%
    23:00 +6°C° 0 mm 2 m/S 728 mmHg 93%

    28 Oktober, Samstag

    Zeit Temperatur Niederschläge Wind Luftdruck Luftfeuchtigkeit
    00:00 +5°C° 0 mm 2 m/S 728 mmHg 94%
    01:00 +5°C° 0 mm 2 m/S 728 mmHg 95%
    02:00 +5°C° 0 mm 2 m/S 728 mmHg 95%
    03:00 +5°C° 0 mm 2 m/S 728 mmHg 95%
    04:00 +5°C° 0 mm 2 m/S 728 mmHg 95%
    05:00 +4°C° 0 mm 3 m/S 728 mmHg 95%
    06:00 +5°C° 0 mm 3 m/S 728 mmHg 94%
    07:00 +5°C° 0 mm 3 m/S 728 mmHg 94%
    08:00 +5°C° 0,1 mm 4 m/S 727 mmHg 92%
    09:00 +6°C° 0,1 mm 4 m/S 727 mmHg 89%
    10:00 +6°C° 0,1 mm 5 m/S 727 mmHg 87%
    11:00 +7°C° 0,2 mm 5 m/S 726 mmHg 85%
    12:00 +7°C° 0,2 mm 5 m/S 726 mmHg 82%
    13:00 +7°C° 0,2 mm 6 m/S 726 mmHg 80%
    14:00 +7°C° 0,2 mm 6 m/S 726 mmHg 81%
    15:00 +7°C° 0,2 mm 5 m/S 725 mmHg 82%
    16:00 +6°C° 0,2 mm 5 m/S 725 mmHg 83%
    17:00 +6°C° 0,2 mm 5 m/S 725 mmHg 84%
    18:00 +6°C° 0,2 mm 5 m/S 725 mmHg 86%
    19:00 +6°C° 0,2 mm 5 m/S 725 mmHg 87%
    20:00 +6°C° 0,1 mm 5 m/S 725 mmHg 88%
    21:00 +6°C° 0,1 mm 5 m/S 726 mmHg 88%
    22:00 +6°C° 0,1 mm 5 m/S 726 mmHg 88%
    23:00 +6°C° 0 mm 5 m/S 726 mmHg 89%

    29 Oktober, Sonntag

    Zeit Temperatur Niederschläge Wind Luftdruck Luftfeuchtigkeit
    00:00 +5°C° 0 mm 5 m/S 725 mmHg 89%
    01:00 +5°C° 0 mm 5 m/S 725 mmHg 90%
    02:00 +5°C° 0 mm 5 m/S 725 mmHg 90%
    03:00 +5°C° 0 mm 5 m/S 725 mmHg 91%
    04:00 +5°C° 0 mm 5 m/S 725 mmHg 91%
    05:00 +5°C° 0,1 mm 5 m/S 725 mmHg 91%
    06:00 +5°C° 0,1 mm 4 m/S 725 mmHg 91%
    07:00 +5°C° 0,1 mm 4 m/S 726 mmHg 91%
    08:00 +6°C° 0 mm 4 m/S 726 mmHg 89%
    09:00 +6°C° 0 mm 4 m/S 725 mmHg 87%
    10:00 +7°C° 0 mm 4 m/S 725 mmHg 85%
    11:00 +7°C° 0 mm 4 m/S 725 mmHg 81%
    12:00 +8°C° 0 mm 4 m/S 724 mmHg 78%
    13:00 +9°C° 0 mm 5 m/S 724 mmHg 75%
    14:00 +10°C° 0 mm 4 m/S 724 mmHg 76%
    15:00 +10°C° 0 mm 4 m/S 723 mmHg 77%
    16:00 +9°C° 0 mm 3 m/S 723 mmHg 78%
    17:00 +8°C° 0,6 mm 4 m/S 722 mmHg 83%
    18:00 +7°C° 0,6 mm 4 m/S 722 mmHg 87%
    19:00 +6°C° 0,6 mm 4 m/S 722 mmHg 92%
    20:00 +6°C° 0,4 mm 5 m/S 722 mmHg 91%
    21:00 +6°C° 0,4 mm 5 m/S 722 mmHg 91%
    22:00 +6°C° 0,4 mm 5 m/S 722 mmHg 90%
    23:00 +6°C° 0,2 mm 5 m/S 721 mmHg 91%
    Mehr zeigen